Location: Clarion
(42.7316°N, 93.7330°W)
Time: 09:32:08
(UTC+00:00)

USA 229 DEB - Pass Details

Date: 22 April 2026
Orbit: 844 x 1364 km, 63.4° (Epoch: 10 January)

Event Time Altitude Azimuth Distance (km) Brightness Sun altitude
Rises 07:05:48 0° 321° (NW) 4,046 7.2 -33.7°
Reaches altitude 10° 07:08:28 10° 318° (NW) 3,149 6.5 -33.6°
Enters shadow 07:14:20 51° 285° (WNW) 1,569 4.4 -33.3°
